User: anonymous
Location: Caltech
(34.1382°N, 118.1253°W)
Time: 02:58:58
(UTC-07:00)
Language:

Cosmos 1939 Rocket - Orbit

View from above orbital plane
View from above orbital plane
View from above satellite
View from above satellite

Ground track
Ground track

The orbit data is extracted from the following two-line orbital elements,

1 19046U 88032B   14261.68871636  .00002041  00000-0  16764-3 0  9826
2 19046 097.6372 314.5653 0038831 143.5452 216.8427 14.99714416422217
Epoch (UTC): 18 September 2014 16:31:45
Eccentricity: 0.0038831
inclination: 97.6372°
perigee height: 541 km
apogee height: 595 km
right ascension of ascending node: 314.5653°
argument of perigee: 143.5452°
revolutions per day: 14.99714416
mean anomaly at epoch: 216.8427°
orbit number at epoch: 42221

The dashed part of the orbit path shows where the satellite is in the earth's shadow,  

DLR